| time (UTC) | temp C | wind direction | speed KPH | gust KPH | rain 1hr cm | rain 24hr cm | rain mn cm | humidity % | barometer mb |
| 20260507163209 | 14 | 88 | 14.5 | 0.0 | 0.00 | 0.00 | 0.36 | 68 | 1020.1 |
| 20260507160211 | 13 | 60 | 8.0 | 0.0 | 0.00 | 0.00 | 0.36 | 71 | 1020.3 |
| 20260507153210 | 14 | 22 | 6.4 | 0.0 | 0.00 | 0.00 | 0.36 | 70 | 1020.1 |
| 20260507150210 | 14 | 183 | 3.2 | 0.0 | 0.00 | 0.00 | 0.36 | 72 | 1020.0 |
| 20260507143212 | 14 | 42 | 6.4 | 0.0 | 0.00 | 0.00 | 0.36 | 76 | 1020.0 |
| 20260507140210 | 13 | 304 | 4.8 | 0.0 | 0.00 | 0.00 | 0.36 | 79 | 1020.3 |
| 20260507133210 | 11 | 281 | 6.4 | 0.0 | 0.00 | 0.00 | 0.36 | 86 | 1020.5 |
| 20260507130210 | 11 | 355 | 8.0 | 0.0 | 0.00 | 0.00 | 0.36 | 88 | 1020.6 |
| 20260507123210 | 11 | 246 | 6.4 | 0.0 | 0.00 | 0.00 | 0.36 | 91 | 1020.5 |
| 20260507120211 | 10 | 175 | 11.3 | 0.0 | 0.00 | 0.00 | 0.33 | 91 | 1020.4 |
| 20260507113210 | 10 | 169 | 6.4 | 0.0 | 0.00 | 0.00 | 0.25 | 89 | 1020.6 |
| 20260507110210 | 11 | 244 | 6.4 | 0.0 | 0.00 | 0.00 | 0.13 | 87 | 1020.3 |
| 20260507103216 | 11 | 0 | 3.2 | 0.0 | 0.00 | 0.00 | 0.13 | 89 | 1020.4 |
| 20260507100212 | 10 | 173 | 8.0 | 0.0 | 0.00 | 0.00 | 0.13 | 90 | 1020.2 |
| 20260507093211 | 10 | 223 | 3.2 | 0.0 | 0.00 | 0.00 | 0.13 | 91 | 1019.9 |
| 20260507090211 | 10 | 182 | 3.2 | 0.0 | 0.00 | 0.00 | 0.13 | 93 | 1019.7 |
| 20260507083212 | 10 | 232 | 14.5 | 0.0 | 0.00 | 0.00 | 0.13 | 94 | 1019.5 |
| 20260507080211 | 9 | 168 | 14.5 | 0.0 | 0.00 | 0.00 | 0.13 | 95 | 1019.5 |
| 20260507073212 | 8 | 165 | 11.3 | 0.0 | 0.00 | 0.00 | 0.13 | 96 | 1019.2 |
| 20260507070212 | 8 | 190 | 9.7 | 0.0 | 0.00 | 0.00 | 0.13 | 96 | 1019.1 |
| 20260507063211 | 8 | 221 | 4.8 | 0.0 | 0.00 | 0.00 | 0.10 | 96 | 1018.8 |
| 20260507060211 | 7 | 215 | 6.4 | 0.0 | 0.00 | 0.00 | 0.08 | 96 | 1018.7 |
| 20260507053211 | 7 | 210 | 8.0 | 0.0 | 0.00 | 0.00 | 0.05 | 96 | 1018.4 |
| 20260507050213 | 7 | 240 | 4.8 | 0.0 | 0.00 | 0.00 | 0.03 | 96 | 1018.1 |
| 20260507043211 | 6 | 250 | 1.6 | 0.0 | 0.00 | 0.00 | 0.03 | 96 | 1017.7 |
| 20260507040216 | 6 | 211 | 3.2 | 0.0 | 0.00 | 0.00 | 0.00 | 96 | 1017.4 |
| 20260507033211 | 6 | 227 | 6.4 | 0.0 | 0.00 | 0.00 | 0.00 | 96 | 1017.2 |
| 20260507030211 | 5 | 213 | 4.8 | 0.0 | 0.00 | 0.00 | 0.00 | 95 | 1017.0 |
| 20260507023211 | 5 | 230 | 0.0 | 0.0 | 0.00 | 0.00 | 0.00 | 95 | 1016.9 |
| 20260507020211 | 5 | 212 | 1.6 | 0.0 | 0.00 | 0.00 | 0.00 | 95 | 1016.8 |
| 20260507013212 | 5 | 294 | 3.2 | 0.0 | 0.00 | 0.00 | 0.00 | 95 | 1016.7 |
| 20260507010211 | 5 | 268 | 4.8 | 0.0 | 0.00 | 0.00 | 0.00 | 95 | 1016.5 |
| 20260507003209 | 6 | 246 | 1.6 | 0.0 | 0.00 | 0.00 | 0.00 | 94 | 1016.4 |
| 20260507000209 | 6 | 246 | 0.0 | 0.0 | 0.00 | 0.00 | 0.00 | 94 | 1016.1 |
| 20260506233209 | 7 | 215 | 1.6 | 0.0 | 0.00 | 0.00 | 0.00 | 94 | 1016.2 |
| 20260506230209 | 7 | 220 | 0.0 | 0.0 | 0.00 | 0.00 | 0.00 | 94 | 1016.1 |
| 20260506223209 | 7 | 192 | 3.2 | 0.0 | 0.00 | 0.00 | 0.00 | 94 | 1016.0 |
| 20260506213209 | 7 | 198 | 3.2 | 0.0 | 0.00 | 0.00 | 0.81 | 93 | 1015.6 |
| 20260506210210 | 8 | 267 | 1.6 | 0.0 | 0.00 | 0.00 | 0.81 | 93 | 1015.5 |
| 20260506203210 | 8 | 267 | 3.2 | 0.0 | 0.00 | 0.00 | 0.81 | 93 | 1015.4 |
| 20260506200210 | 8 | 184 | 9.7 | 0.0 | 0.00 | 0.00 | 0.81 | 93 | 1015.3 |
| 20260506193215 | 8 | 173 | 9.7 | 0.0 | 0.00 | 0.00 | 0.81 | 93 | 1014.9 |
| 20260506190211 | 9 | 189 | 4.8 | 0.0 | 0.00 | 0.00 | 0.81 | 92 | 1014.4 |
| 20260506183209 | 9 | 253 | 11.3 | 0.0 | 0.00 | 0.00 | 0.81 | 93 | 1014.0 |
| 20260506180216 | 10 | 256 | 6.4 | 0.0 | 0.00 | 0.00 | 0.81 | 93 | 1013.9 |
| 20260506173210 | 10 | 198 | 11.3 | 0.0 | 0.00 | 0.00 | 0.81 | 93 | 1013.3 |
| 20260506170215 | 10 | 279 | 8.0 | 0.0 | 0.00 | 0.00 | 0.79 | 93 | 1013.0 |